Showing default

OPS 0100 (TRANSIT 15), 2754

Orbit data source: Space-Track

OPS 0100 (TRANSIT 15), 2754 is a payload satellite owned by USN NAVAIR (US) in LEO that was launched on Fri, 14 Apr 1967 UTC via an SCOUT A launch vehicle from the Air Force Western Test Range (AFWTR). Payloads include a variety of satellites, spacecraft, and rockets equipped with specific instruments for various scientific and technological missions. These include communications satellites like Starlink; space stations such as the ISS; scientific satellites like the Hubble; Earth observation satellites from companies like Planet Labs, Umbra, and HawkEye 360; GPS; miniature CubeSats for education and research; and military/defense satellites.

Loading next visibility...
OPS 0100 (TRANSIT 15) details
Identifier
2754, 1967-034A
Orbit
LEO
Last TLE update11 hours ago
Origin
Flag of USUSN NAVAIR (US)
ManufacturerAPL
MissionDefense Navigation
Bus & MotorTRANSIT 5, Unknown motor
Mass~50 kg wet, ~50 kg dry
Launch date (UTC)
1967-04-14 (58 years ago)
Launch vehicle
SCOUT A
Launch site
Air Force Western Test Range (AFWTR)
Object type
Payload
Rocket body
Debris
Shape & HBROct Cyl + 4 Pan + 1 Rod, Unknown HBR
Radar Cross Section7.565 m², Large (>1 m²)

Expand to show TLE details & history

TLE from 11 hours ago
0 OPS 0100 (TRANSIT 15)
1 02754U 67034A   25024.54742331  .00000265  00000-0  35902-3 0  9995
2 02754  90.2119  23.5029 0019039 189.0241 284.6903 13.57246491857116
Epoch: 2025-01-24T13:08Z
Definitive object data (Epoch: 2025-01-24T13:08:17.373Z)
Latitude66.57471°
Longitude-117.19194°
Altitude1,053.757 km
Speed7.333 km/s
True Right ascension13h 35m 57s
True Declination66° 27' 14"
Sunlit
Object was in daylight at TLE epoch
Visualization TLE readout
Latitude-6.69378°
Longitude-117.69336°
Altitude1,035.661 km
Speed7.341 km/s
Apparent Right ascension13h 30m 10s
Apparent Declination-21° 54' 25"
Sunlit
Object is in daylight
Visualization observer readout
Local Sidereal Time01:24:29
Azimuth355.746° N
Elevation-71.95°
Doppler factor1
Orbital elements
Apogee altitude1,056.884 km
Perigee altitude1,028.627 km
Semi-major axis7,420.892 km
Eccentricity0.0019039
Inclination90.2119°
RAAN23.5029°
Arg. of periapsis189.0241°
True anomaly284.47913°
Mean anomaly284.6903°
Eccentric anomaly284.58473°
Mean motion3.39515 °/min
BSTAR0.00035902
Orbital period106.03 mins
Loading maneuver chart data...
Loading historical data...
Loading historical data...
Loading historical data...
Loading historical data...
Loading historical data...
Loading historical data...
Loading historical data...

OPS 0100 (TRANSIT 15) Visibility forecast

Observer location: undefined°, undefined

Span
Click to sort rows by Start time (UTC) header in descending order
Start Az.
Max El. time (UTC)
Max El. Az.
Max El.
End time (UTC)
End Az.
10 mins2025-01-25 01:04:43.845Z215.346° SW2025-01-25 01:09:43.845Z275.18° WNW29.776°2025-01-25 01:14:43.845Z335.216° NNW
4 mins2025-01-25 10:27:43.845Z58.944° ENE2025-01-25 10:29:43.845Z78.401° E12.692°2025-01-25 10:31:43.845Z97.418° ESE
11 mins2025-01-25 12:10:43.845Z2.045° NNE2025-01-25 12:15:43.845Z355.652° N44.435°2025-01-25 12:21:43.845Z185.117° SSW
|